Year,Month,Day,Hour,Minute,Value (Times are PST for temperature in C)
2017,07,14,08,15,16.40
2017,07,14,08,16,16.40
2017,07,14,08,17,16.40
2017,07,14,08,18,16.50
2017,07,14,08,19,16.50
2017,07,14,08,20,16.50
2017,07,14,08,21,16.60
2017,07,14,08,22,16.60
2017,07,14,08,23,16.60
2017,07,14,08,24,16.70
2017,07,14,08,25,16.90
2017,07,14,08,26,17.00
2017,07,14,08,27,17.10
2017,07,14,08,28,17.10
2017,07,14,08,29,17.10
2017,07,14,08,30,17.20
2017,07,14,08,31,17.10
2017,07,14,08,32,17.00
2017,07,14,08,33,16.90
2017,07,14,08,34,16.90
2017,07,14,08,35,16.90
2017,07,14,08,36,16.90
2017,07,14,08,37,17.00
2017,07,14,08,38,17.00
2017,07,14,08,39,17.10
2017,07,14,08,40,17.10
2017,07,14,08,41,17.20
2017,07,14,08,42,17.20
2017,07,14,08,43,17.20
2017,07,14,08,44,17.30
2017,07,14,08,45,17.40
2017,07,14,08,46,17.40
2017,07,14,08,47,17.30
2017,07,14,08,48,17.30
2017,07,14,08,49,17.30
2017,07,14,08,50,17.30
2017,07,14,08,51,17.30
2017,07,14,08,52,17.40
2017,07,14,08,53,17.50
2017,07,14,08,54,17.50
2017,07,14,08,55,17.60
2017,07,14,08,56,17.60
2017,07,14,08,57,17.70
2017,07,14,08,58,17.80
2017,07,14,08,59,17.80
2017,07,14,09,00,17.90
2017,07,14,09,01,18.00
2017,07,14,09,02,18.00
2017,07,14,09,03,18.00
2017,07,14,09,04,18.00
2017,07,14,09,05,17.90
2017,07,14,09,06,17.70
2017,07,14,09,07,17.60
2017,07,14,09,08,17.60
2017,07,14,09,09,17.60
2017,07,14,09,10,17.50
2017,07,14,09,11,17.50
2017,07,14,09,12,17.40
2017,07,14,09,13,17.40
2017,07,14,09,14,17.50
2017,07,14,09,15,17.50
2017,07,14,09,16,17.50
2017,07,14,09,17,17.60
2017,07,14,09,18,17.70
2017,07,14,09,19,17.70
2017,07,14,09,20,17.70
2017,07,14,09,21,17.70
2017,07,14,09,22,17.70
2017,07,14,09,23,17.80
2017,07,14,09,24,17.90
2017,07,14,09,25,18.00
2017,07,14,09,26,18.00
2017,07,14,09,27,18.00
2017,07,14,09,28,18.00
2017,07,14,09,29,18.10
2017,07,14,09,30,18.20
2017,07,14,09,31,18.20
2017,07,14,09,32,18.30
2017,07,14,09,33,18.30
2017,07,14,09,34,18.50
2017,07,14,09,35,18.60
2017,07,14,09,36,18.60
2017,07,14,09,37,18.60
2017,07,14,09,38,18.70
2017,07,14,09,39,18.80
2017,07,14,09,40,18.80
2017,07,14,09,41,18.90
2017,07,14,09,42,18.90
2017,07,14,09,43,19.00
2017,07,14,09,44,19.00
2017,07,14,09,45,19.10
2017,07,14,09,46,19.20
2017,07,14,09,47,19.30
2017,07,14,09,48,19.30
2017,07,14,09,49,19.30
2017,07,14,09,50,19.30
2017,07,14,09,51,19.30
2017,07,14,09,52,19.20
2017,07,14,09,53,19.20
2017,07,14,09,54,19.10
2017,07,14,09,55,19.20
2017,07,14,09,56,19.20
2017,07,14,09,57,19.10
2017,07,14,09,58,19.00
2017,07,14,09,59,19.00
2017,07,14,10,00,19.00
2017,07,14,10,01,18.90
2017,07,14,10,02,19.00
2017,07,14,10,03,19.10
2017,07,14,10,04,19.10
2017,07,14,10,05,19.10
2017,07,14,10,06,19.00
2017,07,14,10,07,18.90
2017,07,14,10,08,18.90
2017,07,14,10,09,18.80
2017,07,14,10,10,18.80
2017,07,14,10,11,18.90
2017,07,14,10,12,18.90
2017,07,14,10,13,18.90
2017,07,14,10,14,18.90
2017,07,14,10,15,19.00
2017,07,14,10,16,19.00
2017,07,14,10,17,19.10
2017,07,14,10,18,19.10
2017,07,14,10,19,19.10
2017,07,14,10,20,19.10
2017,07,14,10,21,19.10
2017,07,14,10,22,19.10
2017,07,14,10,23,19.10
2017,07,14,10,24,19.10
2017,07,14,10,25,19.20
2017,07,14,10,26,19.20
2017,07,14,10,27,19.30
2017,07,14,10,28,19.30
2017,07,14,10,29,19.30
2017,07,14,10,30,19.30
2017,07,14,10,31,19.30
2017,07,14,10,32,19.30
2017,07,14,10,33,19.20
2017,07,14,10,34,19.10
2017,07,14,10,35,19.00
2017,07,14,10,36,18.90
2017,07,14,10,37,18.90
2017,07,14,10,38,18.80
2017,07,14,10,39,18.80
2017,07,14,10,40,18.70
2017,07,14,10,41,18.60
2017,07,14,10,42,18.60
2017,07,14,10,43,18.60
2017,07,14,10,44,18.70
2017,07,14,10,45,18.80
2017,07,14,10,46,18.80
2017,07,14,10,47,18.90
2017,07,14,10,48,18.90
2017,07,14,10,49,19.00
2017,07,14,10,50,19.10
2017,07,14,10,51,19.00
2017,07,14,10,52,18.90
2017,07,14,10,53,18.80
2017,07,14,10,54,18.70
2017,07,14,10,55,18.80
2017,07,14,10,56,18.90
2017,07,14,10,57,19.00
2017,07,14,10,58,19.00
2017,07,14,10,59,18.90
2017,07,14,11,00,18.80
2017,07,14,11,01,18.80
2017,07,14,11,02,18.80
2017,07,14,11,03,18.80
2017,07,14,11,04,18.90
2017,07,14,11,05,18.90
2017,07,14,11,06,18.90
2017,07,14,11,07,18.90
2017,07,14,11,08,18.80
2017,07,14,11,09,18.80
2017,07,14,11,10,18.90
2017,07,14,11,11,19.10
2017,07,14,11,12,19.10
2017,07,14,11,13,19.10
2017,07,14,11,14,19.20
2017,07,14,11,15,19.30
2017,07,14,11,16,19.30
2017,07,14,11,17,19.40
2017,07,14,11,18,19.40
2017,07,14,11,19,19.40
2017,07,14,11,20,19.50
2017,07,14,11,21,19.50
2017,07,14,11,22,19.50
2017,07,14,11,23,19.50
2017,07,14,11,24,19.50
2017,07,14,11,25,19.50
2017,07,14,11,26,19.40
2017,07,14,11,27,19.30
2017,07,14,11,28,19.30
2017,07,14,11,29,19.20
2017,07,14,11,30,19.20
2017,07,14,11,31,19.20
2017,07,14,11,32,19.30
2017,07,14,11,33,19.40
2017,07,14,11,34,19.50
2017,07,14,11,35,19.50
2017,07,14,11,36,19.50
2017,07,14,11,37,19.40
2017,07,14,11,38,19.30
2017,07,14,11,39,19.30
2017,07,14,11,40,19.40
2017,07,14,11,41,19.60
2017,07,14,11,42,19.70
2017,07,14,11,43,19.80
2017,07,14,11,44,19.90
2017,07,14,11,45,19.90
2017,07,14,11,46,19.90
2017,07,14,11,47,19.80
2017,07,14,11,48,19.80
2017,07,14,11,49,19.80
2017,07,14,11,50,19.80
2017,07,14,11,51,19.90
2017,07,14,11,52,20.00
2017,07,14,11,53,20.10
2017,07,14,11,54,20.10
2017,07,14,11,55,20.10
2017,07,14,11,56,19.90
2017,07,14,11,57,19.80
2017,07,14,11,58,19.60
2017,07,14,11,59,19.50
2017,07,14,12,00,19.50
2017,07,14,12,01,19.40
2017,07,14,12,02,19.40
2017,07,14,12,03,19.30
2017,07,14,12,04,19.40
2017,07,14,12,05,19.50
2017,07,14,12,06,19.60
2017,07,14,12,07,19.70
2017,07,14,12,08,19.70
2017,07,14,12,09,19.60
2017,07,14,12,10,19.40
2017,07,14,12,11,19.40
2017,07,14,12,12,19.40
2017,07,14,12,13,19.50
2017,07,14,12,14,19.60
2017,07,14,12,15,19.70
2017,07,14,12,16,19.90
2017,07,14,12,17,19.90
2017,07,14,12,18,20.00
2017,07,14,12,19,20.00
2017,07,14,12,20,20.10
2017,07,14,12,21,20.00
2017,07,14,12,22,19.90
2017,07,14,12,23,19.80
2017,07,14,12,24,19.70
2017,07,14,12,25,19.70
2017,07,14,12,26,19.70
2017,07,14,12,27,19.80
2017,07,14,12,28,19.80
2017,07,14,12,29,19.80
2017,07,14,12,30,19.80
2017,07,14,12,31,19.80
2017,07,14,12,32,19.80
2017,07,14,12,33,19.80
2017,07,14,12,34,20.00
2017,07,14,12,35,20.20
2017,07,14,12,36,20.30
2017,07,14,12,37,20.40
2017,07,14,12,38,20.40
2017,07,14,12,39,20.40
2017,07,14,12,40,20.30
2017,07,14,12,41,20.30
2017,07,14,12,42,20.30
2017,07,14,12,43,20.20
2017,07,14,12,44,20.10
2017,07,14,12,45,20.00
2017,07,14,12,46,19.90
2017,07,14,12,47,19.90
2017,07,14,12,48,19.90
2017,07,14,12,49,20.00
2017,07,14,12,50,20.00
2017,07,14,12,51,20.10
2017,07,14,12,52,20.20
2017,07,14,12,53,20.40
2017,07,14,12,54,20.50
2017,07,14,12,55,20.60
2017,07,14,12,56,20.70
2017,07,14,12,57,20.70
2017,07,14,12,58,20.70
2017,07,14,12,59,20.80
2017,07,14,13,00,20.80
2017,07,14,13,01,20.90
2017,07,14,13,02,21.00
2017,07,14,13,03,21.10
2017,07,14,13,04,21.10
2017,07,14,13,05,21.10
2017,07,14,13,06,21.10
2017,07,14,13,07,21.10
2017,07,14,13,08,21.00
2017,07,14,13,09,20.80
2017,07,14,13,10,20.70
2017,07,14,13,11,20.60
2017,07,14,13,12,20.40
2017,07,14,13,13,20.20
2017,07,14,13,14,20.10
2017,07,14,13,15,20.00
2017,07,14,13,16,19.90
2017,07,14,13,17,19.90
2017,07,14,13,18,20.00
2017,07,14,13,19,20.00
2017,07,14,13,20,19.90
2017,07,14,13,21,20.00
2017,07,14,13,22,20.10
2017,07,14,13,23,20.10
2017,07,14,13,24,20.20
2017,07,14,13,25,20.30
2017,07,14,13,26,20.40
2017,07,14,13,27,20.30
2017,07,14,13,28,20.30
2017,07,14,13,29,20.20
2017,07,14,13,30,20.20
2017,07,14,13,31,20.20
2017,07,14,13,32,20.30
2017,07,14,13,33,20.50
2017,07,14,13,34,20.60
2017,07,14,13,35,20.50
2017,07,14,13,36,20.40
2017,07,14,13,37,20.30
2017,07,14,13,38,20.20
2017,07,14,13,39,20.20
2017,07,14,13,40,20.30
2017,07,14,13,41,20.40
2017,07,14,13,42,20.50
2017,07,14,13,43,20.50
2017,07,14,13,44,20.50
2017,07,14,13,45,20.60
2017,07,14,13,46,20.60
2017,07,14,13,47,20.60
2017,07,14,13,48,20.60
2017,07,14,13,49,20.40
2017,07,14,13,50,20.30
2017,07,14,13,51,20.40
2017,07,14,13,52,20.50
2017,07,14,13,53,20.50
2017,07,14,13,54,20.30
2017,07,14,13,55,20.20
2017,07,14,13,56,20.20
2017,07,14,13,57,20.30
2017,07,14,13,58,20.50
2017,07,14,13,59,20.70
2017,07,14,14,00,20.90
2017,07,14,14,01,20.90
2017,07,14,14,02,21.00
2017,07,14,14,03,20.90
2017,07,14,14,04,21.00
2017,07,14,14,05,21.00
2017,07,14,14,06,21.10
2017,07,14,14,07,21.10
2017,07,14,14,08,21.00
2017,07,14,14,09,21.00
2017,07,14,14,10,21.00
2017,07,14,14,11,21.00
2017,07,14,14,12,20.90
2017,07,14,14,13,20.70
2017,07,14,14,14,20.40
2017,07,14,14,15,20.20
2017,07,14,14,16,20.20
2017,07,14,14,17,20.30
2017,07,14,14,18,20.30
2017,07,14,14,19,20.30
2017,07,14,14,20,20.30
2017,07,14,14,21,20.20
2017,07,14,14,22,20.30
2017,07,14,14,23,20.40
2017,07,14,14,24,20.50
2017,07,14,14,25,20.60
2017,07,14,14,26,20.80
2017,07,14,14,27,20.80
2017,07,14,14,28,20.80
2017,07,14,14,29,20.90
2017,07,14,14,30,20.90
2017,07,14,14,31,20.90
2017,07,14,14,32,21.00
2017,07,14,14,33,20.90
2017,07,14,14,34,20.80
2017,07,14,14,35,20.80
2017,07,14,14,36,20.80
2017,07,14,14,37,20.90
2017,07,14,14,38,20.90
2017,07,14,14,39,21.10
2017,07,14,14,40,21.40
2017,07,14,14,41,21.70
2017,07,14,14,42,21.90
2017,07,14,14,43,22.10
2017,07,14,14,44,22.20
2017,07,14,14,45,22.30
2017,07,14,14,46,22.40
2017,07,14,14,47,22.60
2017,07,14,14,48,22.60
2017,07,14,14,49,22.50
2017,07,14,14,50,22.40
2017,07,14,14,51,22.20
2017,07,14,14,52,22.00
2017,07,14,14,53,21.80
2017,07,14,14,54,21.70
2017,07,14,14,55,21.70
2017,07,14,14,56,21.70
2017,07,14,14,57,21.80
2017,07,14,14,58,21.80
2017,07,14,14,59,21.90
2017,07,14,15,00,22.00
2017,07,14,15,01,22.00
2017,07,14,15,02,21.90
2017,07,14,15,03,21.90
2017,07,14,15,04,21.90
2017,07,14,15,05,21.90
2017,07,14,15,06,21.80
2017,07,14,15,07,21.80
2017,07,14,15,08,21.70
2017,07,14,15,09,21.60
2017,07,14,15,10,21.60
2017,07,14,15,11,21.70
2017,07,14,15,12,21.90
2017,07,14,15,13,22.10
2017,07,14,15,14,22.20
2017,07,14,15,15,22.10
2017,07,14,15,16,21.80
2017,07,14,15,17,21.60
2017,07,14,15,18,21.40
2017,07,14,15,19,21.30
2017,07,14,15,20,21.20
2017,07,14,15,21,21.20
2017,07,14,15,22,21.20
2017,07,14,15,23,21.40
2017,07,14,15,24,21.50
2017,07,14,15,25,21.60
2017,07,14,15,26,21.70
2017,07,14,15,27,21.60
2017,07,14,15,28,21.50
2017,07,14,15,29,21.40
2017,07,14,15,30,21.40
2017,07,14,15,31,21.40
2017,07,14,15,32,21.40
2017,07,14,15,33,21.40
2017,07,14,15,34,21.40
2017,07,14,15,35,21.40
2017,07,14,15,36,21.30
2017,07,14,15,37,21.30
2017,07,14,15,38,21.40
2017,07,14,15,39,21.40
2017,07,14,15,40,21.40
2017,07,14,15,41,21.30
2017,07,14,15,42,21.20
2017,07,14,15,43,21.00
2017,07,14,15,44,20.90
2017,07,14,15,45,21.00
2017,07,14,15,46,21.00
2017,07,14,15,47,21.00
2017,07,14,15,48,21.00
2017,07,14,15,49,21.00
2017,07,14,15,50,20.90
2017,07,14,15,51,20.80
2017,07,14,15,52,20.70
2017,07,14,15,53,20.80
2017,07,14,15,54,20.90
2017,07,14,15,55,21.00
2017,07,14,15,56,21.10
2017,07,14,15,57,21.30
2017,07,14,15,58,21.40
2017,07,14,15,59,21.20
2017,07,14,16,00,21.20
2017,07,14,16,01,21.10
2017,07,14,16,02,21.10
2017,07,14,16,03,21.10
2017,07,14,16,04,21.10
2017,07,14,16,05,21.00
2017,07,14,16,06,20.90
2017,07,14,16,07,20.80
2017,07,14,16,08,20.80
2017,07,14,16,09,20.80
2017,07,14,16,10,20.80
2017,07,14,16,11,20.90
2017,07,14,16,12,21.00
2017,07,14,16,13,21.10
2017,07,14,16,14,21.00
2017,07,14,16,15,21.00
2017,07,14,16,16,21.10
2017,07,14,16,17,21.20
2017,07,14,16,18,21.30
2017,07,14,16,19,21.30
2017,07,14,16,20,21.20
2017,07,14,16,21,21.00
2017,07,14,16,22,20.90
2017,07,14,16,23,20.90
2017,07,14,16,24,20.90
2017,07,14,16,25,20.90
2017,07,14,16,26,20.90
2017,07,14,16,27,20.90
2017,07,14,16,28,20.90
2017,07,14,16,29,21.00
2017,07,14,16,30,21.00
2017,07,14,16,31,21.20
2017,07,14,16,32,21.20
2017,07,14,16,33,21.20
2017,07,14,16,34,21.20
2017,07,14,16,35,21.10
2017,07,14,16,36,21.10
2017,07,14,16,37,21.20
2017,07,14,16,38,21.30
2017,07,14,16,39,21.30
2017,07,14,16,40,21.30
2017,07,14,16,41,21.30
2017,07,14,16,42,21.40
2017,07,14,16,43,21.40
2017,07,14,16,44,21.30
2017,07,14,16,45,21.30
2017,07,14,16,46,21.30
2017,07,14,16,47,21.30
2017,07,14,16,48,21.40
2017,07,14,16,49,21.50
2017,07,14,16,50,21.50
2017,07,14,16,51,21.50
2017,07,14,16,52,21.50
2017,07,14,16,53,21.30
2017,07,14,16,54,21.30
2017,07,14,16,55,21.40
2017,07,14,16,56,21.40
2017,07,14,16,57,21.40
2017,07,14,16,58,21.40
2017,07,14,16,59,21.50
2017,07,14,17,00,21.40
2017,07,14,17,01,21.40
2017,07,14,17,02,21.50
2017,07,14,17,03,21.50
2017,07,14,17,04,21.50
2017,07,14,17,05,21.40
2017,07,14,17,06,21.40
2017,07,14,17,07,21.30
2017,07,14,17,08,21.30
2017,07,14,17,09,21.30
2017,07,14,17,10,21.30
2017,07,14,17,11,21.20
2017,07,14,17,12,21.20
2017,07,14,17,13,21.30
2017,07,14,17,14,21.30
2017,07,14,17,15,21.30
2017,07,14,17,16,21.20
2017,07,14,17,17,21.20
2017,07,14,17,18,21.20
2017,07,14,17,19,21.30
2017,07,14,17,20,21.40
2017,07,14,17,21,21.40
2017,07,14,17,22,21.40
2017,07,14,17,23,21.30
2017,07,14,17,24,21.30
2017,07,14,17,25,21.30
2017,07,14,17,26,21.40
2017,07,14,17,27,21.40
2017,07,14,17,28,21.40
2017,07,14,17,29,21.40
2017,07,14,17,30,21.40
2017,07,14,17,31,21.30
2017,07,14,17,32,21.30
2017,07,14,17,33,21.30
2017,07,14,17,34,21.40
2017,07,14,17,35,21.40
2017,07,14,17,36,21.40
2017,07,14,17,37,21.30
2017,07,14,17,38,21.20
2017,07,14,17,39,21.10
2017,07,14,17,40,21.10
2017,07,14,17,41,21.20
2017,07,14,17,42,21.20
2017,07,14,17,43,21.30
2017,07,14,17,44,21.30
2017,07,14,17,45,21.30
2017,07,14,17,46,21.30
2017,07,14,17,47,21.40
2017,07,14,17,48,21.40
2017,07,14,17,49,21.50
2017,07,14,17,50,21.40
2017,07,14,17,51,21.50
2017,07,14,17,52,21.50
2017,07,14,17,53,21.50
2017,07,14,17,54,21.50
2017,07,14,17,55,21.60
2017,07,14,17,56,21.70
2017,07,14,17,57,21.70
2017,07,14,17,58,21.70
2017,07,14,17,59,21.70
2017,07,14,18,00,21.70
2017,07,14,18,01,21.70
2017,07,14,18,02,21.70
2017,07,14,18,03,21.70
2017,07,14,18,04,21.60
2017,07,14,18,05,21.60
2017,07,14,18,06,21.50
2017,07,14,18,07,21.50
2017,07,14,18,08,21.60
2017,07,14,18,09,21.60
2017,07,14,18,10,21.60
2017,07,14,18,11,21.60
2017,07,14,18,12,21.50
2017,07,14,18,13,21.40
2017,07,14,18,14,21.30
2017,07,14,18,15,21.30
2017,07,14,18,16,21.30
2017,07,14,18,17,21.30
2017,07,14,18,18,21.40
2017,07,14,18,19,21.40
2017,07,14,18,20,21.40
2017,07,14,18,21,21.40
2017,07,14,18,22,21.30
2017,07,14,18,23,21.30
2017,07,14,18,24,21.20
2017,07,14,18,25,21.20
2017,07,14,18,26,21.10
2017,07,14,18,27,21.10
2017,07,14,18,28,21.10
2017,07,14,18,29,21.10
2017,07,14,18,30,21.10
2017,07,14,18,31,21.20
2017,07,14,18,32,21.20
2017,07,14,18,33,21.20
2017,07,14,18,34,21.20
2017,07,14,18,35,21.20
2017,07,14,18,36,21.30
2017,07,14,18,37,21.20
2017,07,14,18,38,21.10
2017,07,14,18,39,21.10
2017,07,14,18,40,21.10
2017,07,14,18,41,21.10
2017,07,14,18,42,21.10
2017,07,14,18,43,21.10
2017,07,14,18,44,21.10
2017,07,14,18,45,21.10
2017,07,14,18,46,21.10
2017,07,14,18,47,21.10
2017,07,14,18,48,21.10
2017,07,14,18,49,21.10
2017,07,14,18,50,21.10
